Miscellaneous Local Product
Issued by NWS North Platte, NE

Home | Current Version | Previous Version | Text Only | Print | Product List | Glossary On
Versions: 1 2 3 4 5 6 7 8 9 10 11 12 13 14 15 16 17 18 19 20 21 22 23 24 25 26 27 28 29 30 31 32 33 34 35 36 37 38 39 40 41 42 43 44 45 46 47 48 49 50
265
AXUS43 KLBF 251810
MISLBF


WESTERN AND NORTH CENTRAL NEBRASKA HOURLY WEATHER ROUNDUP
NATIONAL WEATHER SERVICE NORTH PLATTE NE
100 PM CDT MON JUL 25 2016

NOTE: "FAIR" INDICATES FEW OR NO CLOUDS BELOW 12,000 FEET WITH NO
SIGNIFICANT WEATHER AND/OR OBSTRUCTIONS TO VISIBILITY.

NOTE: STATIONS NOT REPORTING VARIABLES SUCH AS SKY/WEATHER OR
PRESSURE ARE PROVIDED BY RAWS AND APRS NETWORKS AND ARE NOT UNDER
NATIONAL WEATHER SERVICE QUALITY CONTROL.

...OBSERVATIONS IN AND NEAR THE EASTERN PANHANDLE OF NEBRASKA...

CITY           SKY/WX    TMP DP  RH WIND       PRES   REMARKS
PINE RIDGE     SUNNY     87  55  33 S14G26    30.11F
CHADRON        SUNNY     86  54  33 S16G24    30.09F
ALLIANCE       SUNNY     81  57  43 S18G28    30.16F
SIDNEY         SUNNY     82  58  43 SE21G28   30.19F
CRESCENT LAKE    N/A     79  59  49 S12         N/A
$$

...OBSERVATIONS IN NORTHERN NEBRASKA AND FAR SOUTHERN SOUTH DAKOTA...

CITY           SKY/WX    TMP DP  RH WIND       PRES   REMARKS
WINNER         FAIR      92  43  18 S17       30.09F
VALENTINE      SUNNY     87  46  24 S20G28    30.12F
THEDFORD       SUNNY     83  59  43 SE13G22   30.17F
AINSWORTH      SUNNY     84  51  31 S17G23    30.15F
O`NEILL        SUNNY     84  53  34 S14       30.15F
ORD            SUNNY     81  54  39 SE10      30.14F
BROKEN BOW     SUNNY     80  62  54 SE12G23   30.17F
VALENTINE NWR    N/A     84  50  30 S14G21      N/A
BUTTE            N/A     84  55  36 S13G20      N/A
HALSEY           N/A     82  56  40 SE8G16      N/A
EWING            N/A     84  63  48 S7          N/A
$$

...OBSERVATIONS IN SOUTHWEST NEBRASKA AND FAR NORTHEAST COLORADO...

CITY           SKY/WX    TMP DP  RH WIND       PRES   REMARKS
WRAY           FAIR      84  59  42 SE13      30.18S
HOLYOKE        FAIR      81  63  54 W15G21    30.17F
IMPERIAL       SUNNY     82  62  50 SE13      30.17F
OGALLALA       SUNNY     83  61  46 SE13G20   30.15F
NORTH PLATTE   SUNNY     82  66  58 SE12      30.15F
MCCOOK         SUNNY     85  61  44 SE13      30.15F
LEXINGTON      SUNNY     81  63  54 SE10G17   30.17S
STAPLETON        N/A     82  63  51 CALM        N/A
GOTHENBURG       N/A     78  59  51 SE8         N/A
CALLAWAY         N/A     79  67  67 SE10        N/A
$$

...OBSERVATIONS IN CENTRAL LINCOLN COUNTY AREA...

CITY           SKY/WX    TMP DP  RH WIND       PRES   REMARKS
N.P. AIRPORT   SUNNY     82  66  58 SE12      30.15F
N.P. DOWNTOWN    N/A     82  65  56 E3          N/A
N.P. SOUTHEAST   N/A     82  65  56 SE5G12      N/A
N.P. HILLCREST   N/A     80  67  64 SE8G15      N/A
$$

...SOME OBSERVATIONS FROM AROUND THE REGION...

CITY           SKY/WX    TMP DP  RH WIND       PRES   REMARKS
DENVER         MOSUNNY   87  48  25 CALM      30.19F
LARAMIE        SUNNY     82  28  14 NW9       30.31S
CHEYENNE       SUNNY     79  56  45 S13       30.25S
SCOTTSBLUFF    SUNNY     85  54  34 S21       30.13F
RAPID CITY     SUNNY     88  56  33 S16G23    30.06F
BISMARCK       SUNNY     86  64  47 S9        29.97F
PIERRE         SUNNY     94  55  26 S14       30.01F HX  92
SIOUX FALLS    MOSUNNY   83  58  42 SW9       30.12S
OMAHA          MOSUNNY   84  64  50 E5        30.12F
GRAND ISLAND   SUNNY     81  64  56 SE8       30.15F
KANSAS CITY    CLOUDY    79  70  74 N7        30.07F
WICHITA        PTSUNNY   80  68  66 SW3       30.08F
OKLAHOMA CITY  CLOUDY    89  71  55 NE10      30.04F HX  95
DALLAS         CLOUDY    93  72  50 NE5       29.96F HX 101
AMARILLO       SUNNY     92  60  34 NW10      30.14F HX  91
DODGE CITY     MOSUNNY   79  68  69 E13G20    30.15F
HAYS           MOSUNNY   79  64  61 SE6       30.14F
GOODLAND       MOSUNNY   80  64  58 SE16      30.18F
$$




USA.gov is the U.S. government's official web portal to all federal, state and local government web resources and services.